Location: Casilda
(33.0440°S, 61.1680°W)
Time: 09:39:40
(UTC-03:00)

ISS - Pass Details

Date: 17 October 2021
Orbit: 417 x 423 km, 51.6° (Epoch: 26 October)

Event Time Altitude Azimuth Distance (km) Brightness Sun altitude
Rises 20:31:15 0° 288° (WNW) 2,375 0.9 -15.2°
Reaches altitude 10° 20:33:35 10° 274° (W) 1,518 0.1 -15.7°
Maximum altitude 20:36:28 25° 216° (SW) 909 -1.4 -16.2°
Drops below altitude 10° 20:39:23 10° 158° (SSE) 1,533 -0.9 -16.8°
Sets 20:41:46 0° 144° (SE) 2,405 0.0 -17.2°
Enters shadow 20:41:53 - 144° (SE) 2,451 0.0 -17.3°
